Location: �perlecques
(50.8057°N, 2.1521°E)
Time: 11:09:06
(UTC+00:00)

VELOX 1 - Pass Details

Date: 01 October 2021
Orbit: 626 x 643 km, 98.3° (Epoch: 16 October)

Event Time Altitude Azimuth Distance (km) Brightness Sun altitude
Exits shadow 01:42:03 13° 79° (ENE) 1,840 ? -36.1°
Maximum altitude 01:43:35 15° 56° (NE) 1,716 ? -35.9°
Drops below altitude 10° 01:46:00 10° 22° (NNE) 2,016 ? -35.7°
Sets 01:49:02 0° 359° (N) 2,928 ? -35.4°
